| time (UTC) | temp F | wind direction | speed knots | gust knots | rain 1hr in | rain 24hr in | rain mn in | humidity % | barometer mb |
| 20260507140038 | 55 | 58 | 0.0 | 1.7 | 0.00 | 0.21 | 0.07 | 69 | 1012.2 |
| 20260507135007 | 55 | 37 | 0.0 | 1.7 | 0.00 | 0.22 | 0.07 | 74 | 1012.2 |
| 20260507134006 | 55 | 23 | 0.0 | 0.9 | 0.00 | 0.22 | 0.07 | 76 | 1012.2 |
| 20260507133005 | 55 | 359 | 0.9 | 2.6 | 0.00 | 0.22 | 0.07 | 77 | 1012.2 |
| 20260507132004 | 54 | 71 | 0.0 | 3.5 | 0.00 | 0.22 | 0.07 | 77 | 1011.9 |
| 20260507131004 | 54 | 39 | 0.0 | 0.9 | 0.00 | 0.22 | 0.07 | 81 | 1011.9 |
| 20260507130003 | 54 | 26 | 0.0 | 0.0 | 0.00 | 0.22 | 0.07 | 84 | 1012.2 |
| 20260507125003 | 54 | 26 | 0.0 | 0.0 | 0.00 | 0.22 | 0.07 | 83 | 1012.2 |
| 20260507124002 | 54 | 26 | 0.0 | 0.0 | 0.00 | 0.22 | 0.07 | 83 | 1012.2 |
| 20260507123001 | 54 | 26 | 0.0 | 0.0 | 0.00 | 0.22 | 0.07 | 80 | 1012.2 |
| 20260507122000 | 54 | 27 | 0.0 | 0.0 | 0.00 | 0.22 | 0.07 | 79 | 1011.9 |
| 20260507120959 | 54 | 26 | 0.0 | 0.0 | 0.00 | 0.22 | 0.07 | 78 | 1012.2 |
| 20260507115856 | 54 | 26 | 0.0 | 0.9 | 0.00 | 0.22 | 0.07 | 79 | 1011.9 |
| 20260507114856 | 54 | 26 | 0.0 | 0.9 | 0.00 | 0.22 | 0.07 | 82 | 1011.5 |
| 20260507113855 | 54 | 92 | 0.0 | 0.9 | 0.00 | 0.22 | 0.07 | 84 | 1011.9 |
| 20260507112855 | 53 | 76 | 0.0 | 0.9 | 0.00 | 0.22 | 0.07 | 85 | 1011.5 |
| 20260507111854 | 53 | 26 | 0.0 | 0.9 | 0.00 | 0.22 | 0.07 | 87 | 1011.5 |
| 20260507110853 | 53 | 26 | 0.0 | 0.0 | 0.00 | 0.22 | 0.07 | 89 | 1011.9 |
| 20260507105853 | 53 | 26 | 0.0 | 0.0 | 0.00 | 0.22 | 0.07 | 89 | 1011.5 |
| 20260507104852 | 53 | 26 | 0.0 | 0.0 | 0.00 | 0.22 | 0.07 | 89 | 1011.2 |
| 20260507103820 | 53 | 26 | 0.0 | 0.9 | 0.00 | 0.22 | 0.07 | 89 | 1011.2 |
| 20260507102820 | 53 | 26 | 0.9 | 0.9 | 0.00 | 0.22 | 0.07 | 89 | 1011.2 |
| 20260507101819 | 54 | 27 | 0.0 | 0.0 | 0.00 | 0.22 | 0.07 | 87 | 1011.2 |
| 20260507100818 | 54 | 27 | 0.0 | 2.6 | 0.00 | 0.22 | 0.07 | 86 | 1010.8 |
| 20260507095817 | 54 | 27 | 0.0 | 2.6 | 0.00 | 0.22 | 0.07 | 86 | 1011.2 |
| 20260507094816 | 54 | 37 | 0.0 | 0.0 | 0.00 | 0.22 | 0.07 | 86 | 1011.2 |
| 20260507093816 | 54 | 37 | 0.0 | 0.0 | 0.00 | 0.22 | 0.07 | 86 | 1010.8 |
| 20260507092816 | 54 | 37 | 0.0 | 0.0 | 0.00 | 0.22 | 0.07 | 86 | 1010.8 |
| 20260507091815 | 54 | 37 | 0.0 | 0.0 | 0.00 | 0.22 | 0.07 | 86 | 1011.2 |
| 20260507090814 | 54 | 37 | 0.0 | 0.0 | 0.00 | 0.22 | 0.07 | 86 | 1011.2 |
| 20260507085814 | 54 | 37 | 0.0 | 0.0 | 0.00 | 0.22 | 0.07 | 87 | 1010.8 |
| 20260507084813 | 54 | 37 | 0.0 | 0.0 | 0.00 | 0.22 | 0.07 | 87 | 1010.5 |
| 20260507083812 | 54 | 37 | 0.0 | 0.0 | 0.00 | 0.22 | 0.07 | 88 | 1010.5 |
| 20260507082811 | 55 | 37 | 0.0 | 0.0 | 0.00 | 0.22 | 0.07 | 88 | 1010.5 |
| 20260507081811 | 55 | 37 | 0.0 | 0.9 | 0.00 | 0.22 | 0.07 | 89 | 1010.2 |
| 20260507080810 | 55 | 330 | 0.0 | 0.9 | 0.00 | 0.22 | 0.07 | 89 | 1010.2 |
| 20260507075810 | 55 | 316 | 0.0 | 0.9 | 0.00 | 0.22 | 0.07 | 89 | 1010.2 |
| 20260507074738 | 55 | 316 | 0.0 | 1.7 | 0.00 | 0.22 | 0.07 | 89 | 1009.8 |
| 20260507073737 | 56 | 314 | 0.0 | 2.6 | 0.00 | 0.22 | 0.07 | 89 | 1009.8 |
| 20260507072736 | 56 | 305 | 0.9 | 3.5 | 0.00 | 0.22 | 0.07 | 86 | 1009.8 |
| 20260507071736 | 57 | 318 | 0.0 | 2.6 | 0.01 | 0.22 | 0.07 | 84 | 1009.8 |
| 20260507070704 | 57 | 339 | 0.0 | 0.0 | 0.01 | 0.22 | 0.07 | 83 | 1009.8 |
| 20260507065703 | 57 | 6 | 0.0 | 0.0 | 0.01 | 0.22 | 0.07 | 84 | 1009.5 |
| 20260507064703 | 57 | 6 | 0.0 | 0.0 | 0.01 | 0.22 | 0.07 | 84 | 1009.5 |
| 20260507063702 | 57 | 13 | 0.0 | 1.7 | 0.01 | 0.22 | 0.07 | 85 | 1009.5 |
| 20260507062701 | 57 | 67 | 0.9 | 1.7 | 0.01 | 0.22 | 0.07 | 86 | 1009.5 |
| 20260507061700 | 57 | 94 | 0.9 | 1.7 | 0.01 | 0.21 | 0.06 | 86 | 1009.5 |
| 20260507060700 | 57 | 353 | 0.9 | 0.9 | 0.03 | 0.21 | 0.06 | 87 | 1009.5 |
| 20260507055659 | 57 | 349 | 0.0 | 1.7 | 0.04 | 0.21 | 0.06 | 88 | 1009.8 |
| 20260507054658 | 58 | 306 | 0.9 | 2.6 | 0.05 | 0.21 | 0.06 | 88 | 1009.8 |
| 20260507053657 | 59 | 45 | 0.9 | 3.5 | 0.06 | 0.21 | 0.06 | 89 | 1009.5 |
| 20260507052626 | 59 | 75 | 0.9 | 2.6 | 0.06 | 0.21 | 0.06 | 89 | 1009.5 |
| 20260507051625 | 60 | 360 | 0.0 | 2.6 | 0.05 | 0.20 | 0.05 | 88 | 1009.8 |
| 20260507050625 | 61 | 72 | 1.7 | 1.7 | 0.03 | 0.18 | 0.03 | 88 | 1009.8 |
| 20260507045624 | 62 | 326 | 0.0 | 0.0 | 0.02 | 0.17 | 0.02 | 88 | 1009.5 |
| 20260507044623 | 62 | 328 | 0.0 | 0.0 | 0.01 | 0.16 | 0.01 | 87 | 1009.5 |
| 20260507043622 | 63 | 328 | 0.0 | 0.0 | 0.00 | 0.15 | 0.00 | 86 | 1009.8 |
| 20260507042622 | 63 | 329 | 0.0 | 0.0 | 0.00 | 0.15 | 0.00 | 86 | 1009.5 |
| 20260507041621 | 63 | 328 | 0.0 | 0.0 | 0.00 | 0.15 | 0.00 | 86 | 1009.1 |
| 20260507040620 | 63 | 328 | 0.0 | 0.0 | 0.00 | 0.15 | 0.00 | 86 | 1008.8 |
| 20260507035549 | 63 | 328 | 0.0 | 0.0 | 0.00 | 0.15 | 0.15 | 85 | 1008.8 |
| 20260507034548 | 63 | 299 | 0.0 | 0.0 | 0.00 | 0.15 | 0.15 | 85 | 1009.1 |
| 20260507033547 | 63 | 300 | 0.0 | 0.9 | 0.00 | 0.15 | 0.15 | 84 | 1009.1 |
| 20260507032547 | 64 | 321 | 0.0 | 1.7 | 0.00 | 0.15 | 0.15 | 86 | 1008.8 |
| 20260507031515 | 65 | 64 | 0.9 | 1.7 | 0.00 | 0.15 | 0.15 | 88 | 1008.8 |
| 20260507030514 | 65 | 314 | 0.0 | 2.6 | 0.00 | 0.15 | 0.15 | 87 | 1008.8 |
| 20260507025513 | 65 | 305 | 0.0 | 0.0 | 0.00 | 0.15 | 0.15 | 84 | 1008.5 |
| 20260507024513 | 65 | 284 | 0.0 | 0.0 | 0.00 | 0.15 | 0.15 | 84 | 1008.5 |
| 20260507023512 | 65 | 284 | 0.0 | 0.0 | 0.00 | 0.15 | 0.15 | 85 | 1008.1 |
| 20260507022440 | 65 | 284 | 0.0 | 0.0 | 0.00 | 0.15 | 0.15 | 85 | 1008.1 |
| 20260507021408 | 65 | 284 | 0.0 | 0.0 | 0.00 | 0.15 | 0.15 | 85 | 1008.1 |
| 20260507020336 | 65 | 284 | 0.0 | 0.0 | 0.00 | 0.15 | 0.15 | 86 | 1008.1 |
| 20260507015335 | 65 | 284 | 0.0 | 0.0 | 0.00 | 0.15 | 0.15 | 87 | 1007.8 |
| 20260507014334 | 65 | 284 | 0.0 | 0.0 | 0.00 | 0.15 | 0.15 | 87 | 1008.1 |
| 20260507013303 | 66 | 284 | 0.0 | 0.0 | 0.00 | 0.15 | 0.15 | 87 | 1008.5 |
| 20260507012231 | 66 | 284 | 0.0 | 0.0 | 0.00 | 0.15 | 0.15 | 87 | 1008.5 |
| 20260507011159 | 66 | 284 | 0.0 | 0.0 | 0.00 | 0.15 | 0.15 | 87 | 1008.5 |
| 20260507010159 | 66 | 284 | 0.0 | 0.0 | 0.00 | 0.15 | 0.15 | 88 | 1008.5 |
| 20260507005158 | 66 | 284 | 0.0 | 0.0 | 0.00 | 0.15 | 0.15 | 88 | 1008.1 |
| 20260507004127 | 66 | 284 | 0.0 | 0.0 | 0.00 | 0.15 | 0.15 | 88 | 1008.1 |
| 20260507003126 | 66 | 284 | 0.0 | 0.0 | 0.00 | 0.15 | 0.15 | 88 | 1008.1 |
| 20260507002125 | 66 | 284 | 0.0 | 0.0 | 0.00 | 0.15 | 0.15 | 88 | 1007.8 |
| 20260507001124 | 67 | 284 | 0.0 | 0.0 | 0.00 | 0.15 | 0.15 | 88 | 1008.1 |
| 20260507000124 | 67 | 284 | 0.0 | 0.0 | 0.00 | 0.15 | 0.15 | 87 | 1008.1 |
| 20260506235123 | 67 | 284 | 0.0 | 0.0 | 0.00 | 0.15 | 0.15 | 87 | 1007.8 |
| 20260506234122 | 68 | 284 | 0.0 | 0.0 | 0.00 | 0.15 | 0.15 | 87 | 1007.8 |
| 20260506233122 | 68 | 284 | 0.0 | 0.0 | 0.00 | 0.15 | 0.15 | 86 | 1007.5 |
| 20260506232121 | 68 | 284 | 0.0 | 0.0 | 0.00 | 0.15 | 0.15 | 86 | 1007.5 |
| 20260506231120 | 68 | 284 | 0.0 | 0.0 | 0.00 | 0.15 | 0.15 | 86 | 1007.5 |
| 20260506230119 | 68 | 284 | 0.0 | 0.9 | 0.00 | 0.15 | 0.15 | 86 | 1007.5 |
| 20260506225119 | 69 | 284 | 0.0 | 0.9 | 0.00 | 0.15 | 0.15 | 85 | 1007.5 |
| 20260506224118 | 69 | 284 | 0.9 | 0.9 | 0.00 | 0.15 | 0.15 | 85 | 1007.1 |
| 20260506223117 | 69 | 284 | 0.0 | 0.0 | 0.00 | 0.15 | 0.15 | 84 | 1007.5 |
| 20260506222117 | 69 | 284 | 0.0 | 0.9 | 0.00 | 0.15 | 0.15 | 84 | 1007.5 |
| 20260506221116 | 69 | 284 | 0.0 | 0.9 | 0.00 | 0.15 | 0.15 | 84 | 1007.5 |
| 20260506220115 | 69 | 271 | 0.0 | 0.0 | 0.00 | 0.15 | 0.15 | 84 | 1007.5 |
| 20260506215115 | 70 | 271 | 0.0 | 0.0 | 0.00 | 0.15 | 0.15 | 84 | 1007.5 |
| 20260506214114 | 70 | 319 | 0.0 | 0.0 | 0.00 | 0.15 | 0.15 | 84 | 1007.5 |
| 20260506213113 | 70 | 266 | 0.0 | 0.9 | 0.00 | 0.15 | 0.15 | 83 | 1007.1 |
| 20260506212112 | 70 | 266 | 0.0 | 0.9 | 0.00 | 0.15 | 0.15 | 83 | 1007.1 |
| 20260506211112 | 70 | 137 | 0.9 | 0.9 | 0.00 | 0.15 | 0.15 | 83 | 1007.1 |
| 20260506210111 | 70 | 190 | 0.0 | 0.9 | 0.00 | 0.15 | 0.15 | 83 | 1007.1 |
| 20260506205110 | 70 | 197 | 0.0 | 0.9 | 0.00 | 0.15 | 0.15 | 82 | 1006.8 |
| 20260506204110 | 70 | 236 | 0.0 | 0.0 | 0.00 | 0.15 | 0.15 | 82 | 1006.8 |
| 20260506203038 | 70 | 238 | 0.0 | 1.7 | 0.00 | 0.15 | 0.15 | 82 | 1006.8 |
| 20260506202037 | 70 | 259 | 0.9 | 1.7 | 0.00 | 0.15 | 0.15 | 81 | 1006.8 |
| 20260506201037 | 70 | 131 | 0.0 | 1.7 | 0.00 | 0.15 | 0.15 | 82 | 1006.8 |
| 20260506200036 | 70 | 131 | 0.9 | 1.7 | 0.00 | 0.15 | 0.15 | 82 | 1006.8 |
| 20260506195035 | 70 | 274 | 0.0 | 0.9 | 0.00 | 0.15 | 0.15 | 82 | 1006.8 |
| 20260506194034 | 70 | 77 | 0.0 | 0.9 | 0.00 | 0.15 | 0.15 | 82 | 1006.8 |
| 20260506193034 | 70 | 77 | 0.9 | 0.9 | 0.00 | 0.15 | 0.15 | 84 | 1006.8 |
| 20260506192033 | 69 | 276 | 0.0 | 0.9 | 0.00 | 0.15 | 0.15 | 84 | 1007.1 |
| 20260506191002 | 68 | 269 | 0.0 | 0.9 | 0.00 | 0.15 | 0.15 | 84 | 1007.1 |
| 20260506190001 | 68 | 276 | 0.0 | 0.9 | 0.00 | 0.15 | 0.15 | 86 | 1007.1 |
| 20260506185000 | 68 | 277 | 0.0 | 0.9 | 0.00 | 0.15 | 0.15 | 86 | 1007.5 |
| 20260506183959 | 68 | 229 | 0.0 | 2.6 | 0.00 | 0.15 | 0.15 | 86 | 1007.5 |
| 20260506182958 | 67 | 161 | 0.0 | 2.6 | 0.00 | 0.15 | 0.15 | 87 | 1007.5 |
| 20260506181957 | 66 | 260 | 0.0 | 1.7 | 0.00 | 0.15 | 0.15 | 88 | 1007.8 |
| 20260506180855 | 66 | 122 | 0.9 | 1.7 | 0.00 | 0.15 | 0.15 | 88 | 1007.8 |
| 20260506175854 | 65 | 259 | 0.9 | 2.6 | 0.00 | 0.15 | 0.15 | 87 | 1008.1 |
| 20260506174822 | 65 | 283 | 0.9 | 1.7 | 0.00 | 0.15 | 0.15 | 87 | 1008.1 |
| 20260506173750 | 65 | 290 | 0.9 | 1.7 | 0.00 | 0.15 | 0.15 | 86 | 1008.1 |
| 20260506172750 | 64 | 232 | 0.0 | 1.7 | 0.00 | 0.15 | 0.15 | 85 | 1008.1 |
| 20260506171749 | 64 | 129 | 0.9 | 0.9 | 0.00 | 0.15 | 0.15 | 83 | 1008.1 |
| 20260506170748 | 64 | 183 | 0.0 | 0.9 | 0.00 | 0.15 | 0.15 | 82 | 1008.1 |
| 20260506165748 | 64 | 314 | 0.0 | 0.9 | 0.00 | 0.15 | 0.15 | 80 | 1008.1 |
| 20260506164748 | 64 | 134 | 0.9 | 1.7 | 0.00 | 0.15 | 0.15 | 81 | 1008.5 |
| 20260506163716 | 63 | 290 | 0.0 | 2.6 | 0.01 | 0.15 | 0.15 | 81 | 1008.5 |
| 20260506162715 | 63 | 106 | 1.7 | 2.6 | 0.02 | 0.15 | 0.15 | 80 | 1008.5 |
| 20260506161714 | 63 | 277 | 0.9 | 0.9 | 0.02 | 0.15 | 0.15 | 80 | 1008.5 |
| 20260506160714 | 62 | 248 | 0.0 | 1.7 | 0.03 | 0.15 | 0.15 | 81 | 1008.5 |
| 20260506155713 | 62 | 287 | 0.0 | 2.6 | 0.03 | 0.15 | 0.15 | 81 | 1008.8 |
| 20260506154641 | 62 | 287 | 0.9 | 0.9 | 0.05 | 0.15 | 0.15 | 81 | 1008.8 |
| 20260506153641 | 62 | 287 | 0.0 | 0.9 | 0.08 | 0.14 | 0.14 | 82 | 1008.5 |
| 20260506152640 | 62 | 197 | 0.0 | 0.9 | 0.09 | 0.13 | 0.13 | 83 | 1008.8 |
| 20260506151639 | 62 | 231 | 0.0 | 0.9 | 0.10 | 0.13 | 0.13 | 83 | 1009.5 |
| 20260506150638 | 62 | 284 | 0.0 | 0.9 | 0.10 | 0.12 | 0.12 | 84 | 1009.5 |
| 20260506145637 | 62 | 256 | 0.0 | 0.9 | 0.11 | 0.12 | 0.12 | 85 | 1009.5 |
| 20260506144637 | 62 | 278 | 0.0 | 0.9 | 0.10 | 0.10 | 0.10 | 86 | 1009.5 |
| 20260506143636 | 62 | 278 | 0.0 | 0.9 | 0.06 | 0.06 | 0.06 | 87 | 1009.5 |
| 20260506142635 | 62 | 278 | 0.0 | 0.9 | 0.04 | 0.04 | 0.04 | 87 | 1009.5 |
| 20260506141634 | 63 | 280 | 0.9 | 0.9 | 0.03 | 0.03 | 0.03 | 88 | 1009.5 |